Weather in Shilega

Russia / Arkhangel'skaya Oblast'     64°01′50″N   44°06′27″E
temp.,
°C
wind,
m/s
gust,
m/s
humid.,
%
clouds,
%
prec.,
mm/h
press.,
hPa
HPBL,
m
23 october, sat
sat2300:00−1nnw2598100 5.1 982294
03:00−1n2698100 8.2 985365
06:00−2nne3997100 1.7 987476
09:00−2nne31091100 2.2 991550
12:00−1nne389131 0.0 995456
15:00−1n269316 0.0 999239
18:00−6nnw249717 0.0 100262
21:00−9nnw119790 0.0 100510
24 october, sun
sun2400:00−9nw1198100 0.0 100710
03:00−9nw1198100 0.0 100824
06:00−8wnw1198100 0.0 100921
09:00−5wnw1495100 0.0 1010112
12:00−1wnw2789100 0.0 1011316
15:00−1wnw31087100 0.0 1012532
18:00−5wsw310955 0.0 1012223
21:00−3w41095100 0.0 1012394
25 october, mon
mon2500:00−2w5129295 0.1 1012663
03:00−3w5149153 0.1 1013633
06:00−3w514885 0.0 1013554
09:00−3wnw5129155 0.0 1015589
12:00−1wnw359032 0.0 1017316
15:00−3wsw24955 0.0 1017127
18:00−9sw119983 0.0 101710
21:00−10s1199100 0.0 101611
26 october, tue
tue2600:00−7se1498100 0.0 101567
03:00−4se2795100 0.0 1013188
06:00−4ese2795100 0.0 1011262
09:00−3ese3994100 0.1 1010462
12:00−2ese3794100 0.3 1008502
15:00−2ese3796100 0.6 1007490
18:00−2ese3897100 0.4 1007385
21:00−2ese3897100 1.0 1005363
27 october, wed
wed2700:00−2ese3897100 1.8 1003362
03:00−2ese3898100 4.6 1001306
06:000ese2699100 1.9 998193
09:00+2ssw38100100 4.8 997314
12:00+2wsw411100100 0.7 996546
15:00+2wnw27100100 1.6 996326
18:00−2n3698100 1.8 996328
21:00−4n41096100 3.9 998564